sat.trackr.live / text

‹ back to catalog

STARLINK-31694

NORAD 60140 · 2024-120F

PAYLOAD ACTIVE UNKNOWN

§ Identity

Operator
Country
US
Launch date
2024-06-27
Launch site
AFETR
Launch vehicle
Mass (kg)
RCS (m²)

Purposes: comms

External: N2YO · Heavens-Above · Gunter

§ Orbital elements

Epoch: 2026-09-21T20:18:24.001632Z

Period
93.85 min
Inclination
53.1589°
Eccentricity
0.0001208
Mean motion
15.34382273 rev/d
Perigee alt
461.9 km
Apogee alt
463.6 km
Semi-major
6,840.9 km
B*
2.5730e-5
RAAN
125.6072°
Arg perigee
98.9375°
Mean anomaly
261.1765°
Rev number
12,653

§ Raw data

STARLINK-316941 60140U 24120F   26264.84611113  .00000493  00000+0  25730-4 0  99912 60140  53.1589 125.6072 0001208  98.9375 261.1765 15.34382273126532

JSON: /api/v1/satellites/60140 · /tle

For live sub-satellite position, see the globe view (requires WebGL).

§ Visibility from observer

Set your observer location to see the next 7 days of passes ≥ 10°. The values pass through the URL so the page stays shareable.

No JS? Fill the form by hand. The geolocation button needs JavaScript.